Fort Eustis, VA

1:42 AM EDT on May 30, 2017 (GMT -0400)
Felker Army Air Field

Weather History for KFAF - June, 2013

Change the Weather History Date:

Friday, June 14, 2013

  Actual Average Record
Temperature  
Mean Temperature 70 °F -  
Max Temperature 75 °F 81 °F 95 °F (1999)
Min Temperature 64 °F 66 °F 59 °F (2007)
Cooling Degree Days 4    
Growing Degree Days 20 (Base 50)    
Moisture  
Dew Point 57 °F    
Average Humidity 66    
Maximum Humidity 82    
Minimum Humidity 46    
Precipitation  
Precipitation 0.01 in - - ()
Sea Level Pressure  
Sea Level Pressure 29.81 in    
Wind  
Wind Speed 11 mph (NNW)    
Max Wind Speed 17 mph    
Max Gust Speed 25 mph    
Visibility 10 miles    
Events      
Averages and records for this station are not official NWS values.
T = Trace of Precipitation, MM = Missing Value Source: NWS Daily Summary

Daily Weather History Graph

Daily Weather History Graph

Search for Another Location

Airport or City:

Trip Planner

Search our weather history database for the weather conditions in past years. The results will help you decide how hot, cold, wet, or windy it might be!

Date:

Astronomy

Jun. 14, 2013 Rise Set
Actual Time 5:45 AM EDT 8:27 PM EDT
Civil Twilight 5:15 AM EDT 8:58 PM EDT
Nautical Twilight 4:36 AM EDT 9:37 PM EDT
Astronomical Twilight 3:53 AM EDT 10:20 PM EDT
Moon 11:12 AM EDT (6/14) No Moon Set
Length of Visible Light 15h 43m
Length of Day
14h 41m
Waxing Crescent, 30% of the Moon is Illuminated
Jun 14
Waxing Crescent
Jun 16
First Quarter
Jun 23
Full
Jun 30
Last Quarter
Jul 8
New

Hourly Weather History & Observations

Time (EDT) Temp. Dew Point Humidity Pressure Visibility Wind Dir Wind Speed Gust Speed Precip Events Conditions
12:58 AM 71.4 °F 65.3 °F 81% 29.64 in 10.0 mi NW 13.8 mph 24.2 mph 0.00 in   Drizzle
1:58 AM 70.5 °F 63.3 °F 78% 29.66 in 10.0 mi WNW 6.9 mph - 0.00 in   Drizzle
2:58 AM 68.9 °F 61.0 °F 76% 29.66 in 10.0 mi West 8.1 mph - 0.00 in   Drizzle
3:58 AM 67.8 °F 60.4 °F 77% 29.67 in 10.0 mi WNW 9.2 mph - 0.00 in   Drizzle
4:58 AM 68.5 °F 57.4 °F 67% 29.68 in 10.0 mi NW 17.3 mph 25.3 mph 0.00 in   Drizzle
5:58 AM 67.5 °F 57.4 °F 70% 29.68 in 10.0 mi NW 16.1 mph 20.7 mph 0.00 in   Drizzle
6:58 AM 66.4 °F 56.7 °F 71% 29.71 in 10.0 mi NW 12.7 mph - 0.00 in   Drizzle
7:58 AM 67.3 °F 57.4 °F 70% 29.74 in 10.0 mi NNW 11.5 mph 21.9 mph 0.00 in   Drizzle
8:09 AM 68.0 °F 57.2 °F 68% 29.74 in 10.0 mi NNW 11.5 mph 21.9 mph N/A   Mostly Cloudy
8:14 AM 68.0 °F 57.2 °F 68% 29.75 in 10.0 mi North 8.1 mph 17.3 mph N/A   Mostly Cloudy
8:15 AM 68.0 °F 57.2 °F 68% 29.75 in 10.0 mi North 9.2 mph 17.3 mph N/A   Mostly Cloudy
8:40 AM 68.0 °F 57.2 °F 68% 29.76 in 10.0 mi North 11.5 mph 23.0 mph N/A   Overcast
8:50 AM 68.0 °F 55.4 °F 64% 29.77 in 10.0 mi North 15.0 mph 23.0 mph N/A   Overcast
8:58 AM 67.5 °F 56.5 °F 68% 29.78 in 10.0 mi North 12.7 mph - 0.00 in   Mostly Cloudy
9:58 AM 67.8 °F 56.8 °F 68% 29.81 in 10.0 mi NNW 11.5 mph 20.7 mph N/A   Scattered Clouds
10:58 AM 68.4 °F 55.9 °F 64% 29.84 in 10.0 mi North 11.5 mph 19.6 mph N/A   Overcast
11:58 AM 69.6 °F 57.9 °F 66% 29.86 in 10.0 mi NNW 9.2 mph - N/A   Mostly Cloudy
12:58 PM 68.2 °F 55.9 °F 65% 29.88 in 10.0 mi NNW 13.8 mph 21.9 mph N/A   Overcast
1:58 PM 71.8 °F 55.8 °F 57% 29.88 in 10.0 mi NNW 12.7 mph 19.6 mph N/A   Partly Cloudy
2:58 PM 73.0 °F 53.2 °F 50% 29.90 in 10.0 mi North 13.8 mph 25.3 mph 0.01 in   Partly Cloudy
3:58 PM 73.6 °F 52.0 °F 47% 29.91 in 10.0 mi NNE 9.2 mph 19.6 mph N/A   Clear
4:58 PM 74.7 °F 53.1 °F 47% 29.92 in 10.0 mi North 6.9 mph - N/A   Partly Cloudy
5:58 PM 75.0 °F 53.4 °F 47% 29.92 in 10.0 mi NNW 8.1 mph - N/A   Clear
6:58 PM 75.0 °F 52.7 °F 46% 29.93 in 10.0 mi Variable 2.3 mph - N/A   Clear
7:58 PM 71.1 °F 59.4 °F 66% 29.94 in 10.0 mi Calm Calm - N/A   Clear
8:58 PM 65.8 °F 59.2 °F 79% 29.94 in 10.0 mi North - - N/A   Clear
9:58 PM 64.4 °F 58.6 °F 82% 29.96 in 10.0 mi East 2.3 mph - N/A   Clear
10:58 PM 66.0 °F 58.6 °F 77% 29.97 in 10.0 mi SW 4.6 mph - N/A   Clear
11:58 PM 66.7 °F 57.0 °F 71% 29.98 in 10.0 mi SW 3.5 mph - N/A   Clear